Moab, UT

5:02 AM MST on November 13, 2019 (GMT -0700)
Canyonlands

Weather History for KCNY - May, 2019

Change the Weather History Date:

Friday, May 3, 2019

  Actual Average Record
Temperature  
Mean Temperature 54 °F 58 °F  
Max Temperature 70 °F 73 °F 93 °F (1992)
Min Temperature 37 °F 43 °F 32 °F (1967)
Degree Days  
Heating Degree Days 11 7  
Month to date heating degree days 43 23  
Since 1 July heating degree days 5613 5448  
Cooling Degree Days 0 1  
Month to date cooling degree days 0 1  
Year to date cooling degree days 2 4  
Growing Degree Days 4 (Base 50)    
Moisture  
Dew Point 28 °F    
Average Humidity 50    
Maximum Humidity 85    
Minimum Humidity 15    
Precipitation  
Precipitation 0.00 in 0.03 in 0.65 in (1934)
Month to date precipitation 0.00 0.07  
Year to date precipitation 4.99 2.69  
Sea Level Pressure  
Sea Level Pressure 29.94 in    
Wind  
Wind Speed 2 mph (NNW)    
Max Wind Speed 16 mph    
Max Gust Speed 21 mph    
Visibility 10 miles    
Events      
T = Trace of Precipitation, MM = Missing Value Source: NWS Daily Summary

Daily Weather History Graph

Daily Weather History Graph

Search for Another Location

Airport or City:

Astronomy

May. 03, 2019 Rise Set
Actual Time 6:19 AM MDT 8:13 PM MDT
Civil Twilight 5:50 AM MDT 8:42 PM MDT
Nautical Twilight 5:15 AM MDT 9:17 PM MDT
Astronomical Twilight 4:37 AM MDT 9:55 PM MDT
Moon 6:00 AM MDT (5/3) 7:05 PM MDT (5/3)
Length of Visible Light 14h 51m
Length of Day
13h 53m
Waning Crescent, 2% of the Moon is Illuminated
May 3
Waning Crescent
May 4
New
May 11
First Quarter
May 18
Full
May 26
Last Quarter

Hourly Weather History & Observations

Time (MDT) Temp. Windchill Dew Point Humidity Pressure Visibility Wind Dir Wind Speed Gust Speed Precip Events Conditions
12:53 AM 46.9 °F - 30.9 °F 54% 29.97 in 10.0 mi Calm Calm - N/A   Clear
1:53 AM 43.0 °F - 33.1 °F 68% 29.96 in 10.0 mi Calm Calm - N/A   Clear
2:53 AM 41.0 °F - 33.1 °F 73% 29.96 in 10.0 mi Calm Calm - N/A   Clear
3:53 AM 44.1 °F - 30.9 °F 60% 29.96 in 10.0 mi Calm Calm - N/A   Clear
4:53 AM 37.0 °F - 34.0 °F 89% 29.98 in 10.0 mi Calm Calm - N/A   Clear
5:53 AM 39.0 °F 36.8 °F 33.1 °F 79% 29.98 in 10.0 mi West 3.5 mph - N/A   Clear
6:53 AM 39.9 °F - 33.1 °F 77% 29.99 in 10.0 mi Calm Calm - N/A   Clear
7:53 AM 46.9 °F - 35.1 °F 63% 29.99 in 10.0 mi Calm Calm - N/A   Clear
8:53 AM 52.0 °F - 30.0 °F 43% 29.99 in 10.0 mi Calm Calm - N/A   Clear
9:53 AM 57.0 °F - 27.0 °F 32% 29.99 in 10.0 mi Calm Calm - N/A   Clear
10:53 AM 61.0 °F - 25.0 °F 25% 29.98 in 10.0 mi Variable 3.5 mph - N/A   Clear
11:53 AM 63.0 °F - 21.0 °F 20% 29.99 in 10.0 mi East 5.8 mph - N/A   Clear
12:53 PM 66.9 °F - 23.0 °F 19% 29.96 in 10.0 mi Calm Calm - N/A   Clear
1:53 PM 66.0 °F - 21.0 °F 18% 29.95 in 10.0 mi South 5.8 mph - N/A   Clear
2:53 PM 68.0 °F - 19.9 °F 16% 29.94 in 10.0 mi Variable 4.6 mph - N/A   Clear
3:53 PM 69.1 °F - 19.0 °F 15% 29.90 in 10.0 mi WSW 9.2 mph 20.7 mph N/A   Clear
4:53 PM 68.0 °F - 19.9 °F 16% 29.91 in 10.0 mi Calm Calm - N/A   Clear
5:53 PM 70.0 °F - 21.0 °F 16% 29.88 in 10.0 mi NNW 5.8 mph - N/A   Clear
6:53 PM 68.0 °F - 21.0 °F 17% 29.87 in 10.0 mi North 3.5 mph - N/A   Clear
7:53 PM 64.0 °F - 26.1 °F 24% 29.86 in 10.0 mi NE 3.5 mph - N/A   Clear
8:53 PM 61.0 °F - 30.9 °F 32% 29.86 in 10.0 mi Calm Calm - N/A   Partly Cloudy
9:53 PM 60.1 °F - 28.9 °F 31% 29.87 in 10.0 mi Calm Calm - N/A   Overcast
10:53 PM 57.9 °F - 30.9 °F 36% 29.87 in 10.0 mi Calm Calm - N/A   Overcast
11:53 PM 55.0 °F - 36.0 °F 49% 29.87 in 10.0 mi NNW 5.8 mph - N/A   Mostly Cloudy